[[{"header":{"parameterUnit":"m.s-1","parameterCategory":1,"la1":30.2991,"la2":30.254,"lo1":-89.0895,"lo2":-89.0444,"dy":0.0017,"dx":0.0017,"nx":28,"ny":28,"refTime":"2025-01-26T03:00:00:Z","depth":0,"parameterNumber":2,"parameterNumberName":"U-component_of_WINDS"},"data":[0,0,0,0,0,0,0,0,0,0,0,0,0,0,0,0,0,0,0,0,0,0,0,0,0,0,0,0,0,0,0,0,0,0,0,0,0,0,0,0,0,0,0,0,0,0,0,0,0,0,0,0,0,0,0,0,0,0,-3.6565,-3.6564,0,-3.6486,-3.6485,-3.6484,-3.6295,-3.6291,-3.6287,-3.6284,-3.6207,-3.6209,-3.621,0,0,0,0,0,0,0,0,0,0,0,0,0,-3.6558,-3.6559,-3.6565,-3.6564,-3.6563,-3.6486,-3.6485,-3.6484,-3.6296,-3.6291,-3.6286,-3.6282,-3.6206,-3.6208,-3.621,0,0,0,0,0,0,0,0,0,0,0,0,0,-3.6528,-3.6559,-3.6565,-3.646,-3.645,-3.6486,-3.6485,-3.6483,-3.6297,-3.6291,-3.6285,-3.628,-3.6206,-3.6208,-3.6211,-3.6344,0,0,-3.6218,-3.6219,0,0,0,0,0,0,0,0,-3.653,-3.6529,-3.6476,-3.6467,-3.6456,-3.6394,-3.6454,-3.6437,-3.6298,-3.6355,-3.6283,-3.6277,-3.6274,-3.6271,-3.6269,-3.634,-3.6337,-3.6218,-3.622,-3.6221,-3.6221,0,0,0,0,0,0,0,-3.6532,-3.6531,-3.6534,-3.6476,-3.6463,-3.6418,-3.6407,-3.645,-3.6349,-3.635,-3.6336,-3.6329,-3.6268,-3.6267,-3.6266,-3.6336,-3.6218,-3.622,-3.6222,-3.6223,-3.6511,-3.6516,0,0,0,0,0,0,-3.6549,-3.6534,-3.6536,-3.6531,-3.6479,-3.6423,-3.6411,-3.642,-3.6348,-3.6331,-3.6334,-3.632,-3.6266,-3.6263,-3.6262,-3.6411,-3.6221,-3.6223,-3.6224,-3.6504,-3.6512,-3.6519,0,0,0,0,0,0,-3.655,-3.6551,-3.6539,-3.6529,-3.6524,-3.6429,-3.6441,-3.6422,-3.6421,-3.6336,-3.6317,-3.6352,-3.6261,-3.6259,-3.6324,-3.6406,-3.6224,-3.6226,-3.6497,-3.6507,-3.6515,-3.6713,0,0,0,0,0,0,-3.655,-3.6552,-3.6601,-3.6531,-3.6525,-3.6602,-3.6446,-3.6424,-3.6425,-3.6406,-3.6348,-3.6332,-3.6256,-3.6322,-3.6327,-3.6406,-3.6228,-3.6489,-3.6501,-3.6512,-3.6699,-3.6728,-3.6753,0,0,0,0,0,-3.6551,-3.6662,-3.6605,-3.6606,-3.6584,-3.6607,-3.6604,-3.6513,-3.6432,-3.6481,-3.6426,-3.6334,-3.6397,-3.633,-3.6334,-3.6416,-3.6484,-3.6498,-3.6511,-3.6687,-3.6722,-3.6752,0,0,0,0,0,0,-3.6746,-3.6651,-3.6586,-3.6678,-3.6652,-3.6575,-3.6634,-3.6554,-3.6551,-3.6534,-3.6423,-3.6411,-3.6491,-3.646,-3.6387,-3.654,-3.6425,-3.6441,-3.6557,-3.659,-3.6617,-3.6622,-3.623,0,0,0,0,0,-3.6799,-3.6825,-3.6741,-3.683,-3.682,-3.673,-3.6737,-3.6668,-3.6638,-3.6626,-3.6576,-3.6551,-3.6564,-3.6576,-3.6584,-3.6694,-3.6678,-3.6752,-3.6779,-3.6802,-3.6816,-3.687,-3.6902,-3.6564,-3.6564,-3.6564,0,0,-3.6911,-3.6862,-3.6885,-3.6868,-3.6839,-3.6869,-3.6722,-3.676,-3.678,-3.6632,-3.6689,-3.6653,-3.6617,-3.6705,-3.6741,-3.6681,-3.6906,-3.682,-3.6839,-3.684,-3.6888,-3.692,-3.6948,-3.6574,-3.6572,-3.657,0,0,-3.7127,-3.7094,-3.7163,-3.7137,-3.7095,-3.7034,-3.7052,-3.6987,-3.6956,-3.7012,-3.69,-3.6925,-3.6951,-3.6929,-3.6922,-3.713,-3.7045,-3.7137,-3.7278,-3.7331,-3.7358,-3.7381,-3.7453,-3.7481,-3.7151,-3.7152,-3.7152,0,-3.7271,-3.7309,-3.7209,-3.7253,-3.7248,-3.7114,-3.7183,-3.7164,-3.7129,-3.7129,-3.7062,-3.7091,-3.7058,-3.7138,-3.7188,-3.7188,-3.7203,-3.7142,-3.7362,-3.7384,-3.7404,-3.7472,-3.75,-3.7163,-3.7162,-3.7161,-3.716,0,-3.7487,-3.7516,-3.7577,-3.7543,-3.7546,-3.7603,-3.7512,-3.7527,-3.7459,-3.7406,-3.7464,-3.7419,-3.7415,-3.7429,-3.7364,-3.75,-3.7463,-3.7382,-3.7264,-3.7449,-3.7511,-3.7536,-3.7179,-3.7175,-3.7172,-3.7169,0,0,-3.7824,-3.7733,-3.7757,-3.7739,-3.7683,-3.7704,-3.7755,-3.7749,-3.7763,-3.7744,-3.7783,-3.7808,-3.7731,-3.7723,-3.7655,-3.7703,-3.7868,-3.7614,-3.7611,-3.7661,-3.8013,-3.8073,-3.8105,-3.7812,-3.7817,-3.782,-3.8015,0,-3.8026,-3.8105,-3.8016,-3.8115,-3.8139,-3.8012,-3.8056,-3.8027,-3.7979,-3.7994,-3.7941,-3.7959,-3.7858,-3.7852,-3.7893,-3.7839,-3.7937,-3.7824,-3.7847,-3.7849,-3.7857,-3.8137,-3.8201,-3.8387,-3.8039,-3.8043,-3.8046,0,-3.8271,-3.826,-3.8361,-3.8297,-3.8304,-3.8345,-3.8331,-3.8347,-3.8312,-3.8274,-3.8265,-3.8181,-3.8227,-3.8114,-3.8176,-3.8101,-3.8105,-3.8081,-3.8085,-3.8082,-3.7957,-3.814,-3.8444,-3.8471,-3.8083,-3.808,-3.8077,0,-3.8504,-3.8515,-3.8576,-3.8565,-3.8493,-3.8524,-3.8496,-3.8455,-3.8456,-3.8446,-3.8445,-3.8441,-3.8439,-3.8438,-3.8356,-3.8281,-3.8427,-3.8308,-3.8396,-3.8398,-3.843,-3.8429,-3.8738,-3.8438,-3.8438,-3.8437,-3.8437,0,-3.8737,-3.8803,-3.8679,-3.8716,-3.8786,-3.8684,-3.8757,-3.8716,-3.868,-3.8708,-3.8599,-3.8628,-3.8519,-3.8536,-3.8473,-3.8532,-3.8533,-3.8503,-3.8484,-3.8511,-3.8514,-3.851,-3.8494,-3.8445,-3.8443,-3.8442,-3.844,0,-3.9008,-3.8927,-3.8985,-3.8911,-3.8894,-3.8949,-3.8886,-3.8918,-3.8863,-3.8899,-3.8902,-3.8815,-3.883,-3.8748,-3.8749,-3.8706,-3.8796,-3.8758,-3.8807,-3.8794,-3.8886,-3.8878,-3.9201,-3.9237,-3.8918,-3.8921,-3.8924,0,-3.916,-3.9208,-3.9138,-3.9148,-3.9124,-3.9142,-3.9142,-3.9044,-3.9049,-3.9012,-3.9049,-3.9054,-3.9052,-3.9082,-3.902,-3.9019,-3.8978,-3.9092,-3.8977,-3.9002,-3.8977,-3.8974,-3.8977,-3.9115,-3.9119,-3.9122,-3.9125,0,-3.9439,-3.9396,-3.94,-3.9391,-3.9393,-3.9382,-3.9363,-3.9377,-3.9271,-3.9283,-3.9294,-3.9294,-3.9293,-3.9299,-3.9286,-3.9257,-3.9174,-3.9162,-3.9181,-3.9207,-3.9233,-3.9217,-3.887,-3.9154,-3.9151,-3.9149,-3.9147,-3.9146,-3.9653,-3.9688,-3.9644,-3.9652,-3.9627,-3.9611,-3.9637,-3.9584,-3.9592,-3.9582,-3.9525,-3.9547,-3.951,-3.9484,-3.9463,-3.948,-3.9426,-3.9456,-3.9463,-3.9471,-3.9486,-3.9233,-3.9478,-3.9477,-3.9476,-3.9476,-3.9475,0,-3.9923,-3.9888,-3.9897,-3.9872,-3.9878,-3.9798,-3.9773,-3.9783,-3.9804,-3.9776,-3.9776,-3.979,-3.9795,-3.9734,-3.9731,-3.9757,-3.9718,-3.9759,-3.9755,-3.9749,-3.9536,-3.9517,-3.979,-3.979,-3.979,-3.979,-3.979,-3.979,-4.0064,-4.0118,-4.0071,-4.0112,-4.0077,-4.0097,-4.0089,-4.0074,-4.0051,-4.007,-4.0073,-4.0033,-3.9991,-3.9985,-3.9986,-3.9968,-3.9971,-4.0025,-3.9994,-3.9795,-3.9764,-3.9735,-3.9717,-4.0027,-4.0027,-4.0204,-4.0206,-4.0208]},{"header":{"parameterUnit":"m.s-1","parameterCategory":1,"la1":30.2991,"la2":30.254,"lo1":-89.0895,"lo2":-89.0444,"dy":0.0017,"dx":0.0017,"nx":28,"ny":28,"refTime":"2025-01-26T03:00:00:Z","depth":0,"parameterNumber":3,"parameterNumberName":"V-component_of_WINDS"},"data":[0,0,0,0,0,0,0,0,0,0,0,0,0,0,0,0,0,0,0,0,0,0,0,0,0,0,0,0,0,0,0,0,0,0,0,0,0,0,0,0,0,0,0,0,0,0,0,0,0,0,0,0,0,0,0,0,0,0,-0.011,-0.011,0,-0.0139,-0.0139,-0.0139,-0.018,-0.018,-0.0181,-0.0182,-0.021,-0.021,-0.0211,0,0,0,0,0,0,0,0,0,0,0,0,0,-0.0087,-0.0087,-0.011,-0.011,-0.011,-0.0139,-0.0139,-0.0139,-0.018,-0.018,-0.0181,-0.0182,-0.021,-0.021,-0.0211,0,0,0,0,0,0,0,0,0,0,0,0,0,-0.0104,-0.0087,-0.0109,-0.0134,-0.0136,-0.0139,-0.0139,-0.014,-0.0179,-0.018,-0.0181,-0.0182,-0.021,-0.021,-0.0211,-0.0191,0,0,-0.0211,-0.0211,0,0,0,0,0,0,0,0,-0.0103,-0.0105,-0.013,-0.0132,-0.0135,-0.0157,-0.0142,-0.0157,-0.0179,-0.0163,-0.0182,-0.0183,-0.0192,-0.0193,-0.0196,-0.0192,-0.0194,-0.0211,-0.0211,-0.0211,-0.0211,0,0,0,0,0,0,0,-0.0102,-0.0104,-0.0121,-0.013,-0.0133,-0.0143,-0.0146,-0.0145,-0.0171,-0.0164,-0.0167,-0.017,-0.0193,-0.0196,-0.0197,-0.0194,-0.0211,-0.0211,-0.0211,-0.0211,-0.0174,-0.0173,0,0,0,0,0,0,-0.0097,-0.0103,-0.012,-0.0122,-0.0121,-0.0142,-0.0146,-0.0149,-0.0171,-0.0176,-0.0169,-0.0172,-0.0195,-0.0197,-0.0199,-0.0176,-0.0211,-0.0212,-0.0212,-0.0175,-0.0173,-0.0172,0,0,0,0,0,0,-0.0097,-0.0099,-0.0119,-0.0113,-0.0116,-0.0141,-0.0144,-0.0149,-0.0152,-0.0175,-0.018,-0.0168,-0.0196,-0.0198,-0.0192,-0.0177,-0.0212,-0.0212,-0.0176,-0.0174,-0.0173,-0.0131,0,0,0,0,0,0,-0.0096,-0.0098,-0.0091,-0.0113,-0.0117,-0.0113,-0.0143,-0.0148,-0.0152,-0.0156,-0.0175,-0.0179,-0.0197,-0.0192,-0.0192,-0.0178,-0.0212,-0.0178,-0.0175,-0.0173,-0.0134,-0.0128,-0.0123,0,0,0,0,0,-0.0095,-0.0079,-0.0091,-0.0093,-0.0109,-0.0112,-0.0114,-0.0136,-0.0151,-0.0144,-0.0159,-0.0178,-0.0179,-0.0191,-0.0192,-0.0178,-0.0179,-0.0176,-0.0174,-0.0136,-0.0129,-0.0123,0,0,0,0,0,0,-0.0055,-0.0082,-0.0096,-0.0086,-0.0096,-0.0119,-0.0111,-0.0128,-0.0134,-0.0137,-0.0163,-0.0167,-0.0158,-0.0167,-0.018,-0.0159,-0.0182,-0.0179,-0.0153,-0.0147,-0.0141,-0.0139,-0.0212,0,0,0,0,0,-0.0045,-0.0045,-0.0069,-0.0058,-0.0062,-0.0085,-0.0088,-0.0103,-0.0115,-0.0119,-0.0134,-0.0144,-0.0146,-0.0147,-0.0151,-0.0136,-0.0139,-0.0126,-0.0121,-0.0117,-0.0114,-0.0105,-0.0099,-0.0164,-0.0164,-0.0164,0,0,-0.0024,-0.0039,-0.0038,-0.005,-0.006,-0.0059,-0.0089,-0.0087,-0.0086,-0.0119,-0.0114,-0.0125,-0.0137,-0.0126,-0.0122,-0.0134,-0.0097,-0.0113,-0.011,-0.0109,-0.0101,-0.0095,-0.009,-0.0162,-0.0163,-0.0163,0,0,0.0014,0.0002,0.0011,0.0002,-0.0013,-0.0028,-0.0026,-0.0045,-0.0054,-0.0049,-0.0073,-0.0072,-0.0076,-0.0084,-0.0088,-0.0052,-0.0069,-0.0052,-0.0024,-0.0015,-0.001,-0.0005,0.001,0.0015,-0.0049,-0.0049,-0.0049,0,0.0042,0.0042,0.0017,0.0021,0.0017,-0.0013,-0.0003,-0.0011,-0.0025,-0.0027,-0.0041,-0.0045,-0.0056,-0.0046,-0.0037,-0.004,-0.0037,-0.0049,-0.0009,-0.0004,-0.0,0.0013,0.0019,-0.0047,-0.0047,-0.0048,-0.0048,0,0.0077,0.0078,0.0086,0.0073,0.007,0.0077,0.0054,0.0054,0.0039,0.0025,0.0031,0.0017,0.0011,0.0012,-0.0003,0.002,0.0013,-0.0004,-0.0027,0.0009,0.0021,0.0026,-0.0044,-0.0045,-0.0045,-0.0046,0,0,0.014,0.0114,0.0118,0.0112,0.0095,0.0095,0.0101,0.0094,0.0096,0.0087,0.0092,0.009,0.0074,0.0069,0.0053,0.0061,0.0093,0.0042,0.0042,0.0054,0.012,0.0134,0.0141,0.0081,0.0081,0.0082,0.0122,0,0.0176,0.0184,0.0163,0.0177,0.0178,0.015,0.0156,0.0146,0.0134,0.0133,0.012,0.0119,0.0098,0.0095,0.0101,0.0088,0.0106,0.0084,0.0087,0.0087,0.0092,0.0147,0.0162,0.02,0.0126,0.0127,0.0127,0,0.0219,0.0213,0.0227,0.021,0.021,0.0215,0.0209,0.0208,0.0197,0.0188,0.0183,0.0164,0.017,0.0147,0.0155,0.0141,0.014,0.0134,0.0135,0.0135,0.011,0.0151,0.0211,0.0217,0.0135,0.0134,0.0134,0,0.0266,0.0261,0.0269,0.0265,0.0245,0.025,0.0242,0.0229,0.0228,0.0222,0.0221,0.0216,0.0214,0.0211,0.0192,0.0176,0.0203,0.0178,0.0196,0.0197,0.0204,0.0204,0.0267,0.0201,0.0201,0.0201,0.0201,0,0.031,0.032,0.029,0.0296,0.0307,0.0282,0.0294,0.0283,0.0273,0.0276,0.0252,0.0256,0.0229,0.0231,0.0216,0.0226,0.0224,0.0218,0.0214,0.0221,0.0222,0.0221,0.0219,0.0203,0.0202,0.0202,0.0202,0,0.0364,0.0344,0.0352,0.0333,0.0328,0.0337,0.0321,0.0326,0.0312,0.0316,0.0316,0.0295,0.0295,0.0276,0.0272,0.0262,0.0279,0.027,0.0283,0.0281,0.0301,0.03,0.0367,0.0375,0.0303,0.0304,0.0304,0,0.0394,0.0401,0.0383,0.0383,0.0376,0.0377,0.0376,0.0352,0.0352,0.034,0.0347,0.0345,0.0343,0.0345,0.0329,0.0327,0.0318,0.0342,0.0318,0.0325,0.0321,0.0321,0.0323,0.0347,0.0348,0.0349,0.0349,0,0.0449,0.044,0.0438,0.0433,0.0432,0.0427,0.042,0.0422,0.0397,0.0398,0.0398,0.0396,0.0393,0.0392,0.0387,0.0379,0.0361,0.0357,0.0362,0.0369,0.0378,0.0375,0.0299,0.0356,0.0355,0.0355,0.0354,0.0354,0.0493,0.0499,0.0488,0.0487,0.048,0.0475,0.0479,0.0466,0.0465,0.0461,0.0447,0.045,0.044,0.0431,0.0425,0.0428,0.0416,0.0422,0.0424,0.0426,0.0431,0.0376,0.0426,0.0426,0.0426,0.0426,0.0426,0,0.0549,0.0541,0.054,0.0532,0.0532,0.0514,0.0507,0.0508,0.0511,0.0503,0.0501,0.0502,0.0502,0.0486,0.0484,0.0489,0.0481,0.049,0.049,0.0489,0.0441,0.0438,0.0497,0.0497,0.0497,0.0497,0.0497,0.0497,0.0578,0.0588,0.0577,0.0583,0.0574,0.0577,0.0575,0.057,0.0564,0.0566,0.0566,0.0556,0.0545,0.0543,0.0542,0.0537,0.0538,0.055,0.0544,0.0499,0.0492,0.0486,0.0483,0.055,0.055,0.0592,0.0592,0.0593]}]]